STARLINK-3728, 52361

Orbit data source: Space-Track

STARLINK-3728, 52361 is a payload satellite owned by SpaceX/Seattle (US) in LEO that was launched on Fri, 29 Apr 2022 UTC via an FALCON 9 launch vehicle from the Air Force Eastern Test Range (AFETR). Payload-class satellites include a variety of spacecraft equipped with specific instruments for various scientific and technological missions. These include communications satellites like Starlink; space stations such as the ISS; scientific satellites like the Hubble; Earth observation satellites from companies like Planet Labs, Umbra, and HawkEye 360; GPS; miniature CubeSats for education and research; and military/defense satellites.

Loading next visibility...
Identifier
52361, 2022-045AG
Orbit
LEO
Country
Flag of USUS
Related business
Manufacturer
SpaceX/Seattle
Mission
Operational Commercial Communications
Bus & Motor
STARLINK, Unknown motor
Mass
297 kg wet, ~275 kg dry
Launch date (UTC)
2022-04-29 (4 years ago)
Launch vehicle
FALCON 9
Launch site
Air Force Eastern Test Range (AFETR)
Object type
Payload
Rocket body
Debris
Shape & HBR
Box + 1 Pan, 10.1 m
Radar Cross Section
11.087 m², Large (>1 m²)

Expand to show TLE details & history
Last TLE update: 5 hours ago

TLE from 5 hours ago
0 STARLINK-3728
1 52361U 22045AG  26119.94034724 -.00001694  00000-0 -88352-4 0  9994
2 52361  53.2183 329.0490 0001423  82.5297 277.5857 15.08839447223525
Epoch: 2026-04-29T22:34Z
TLE epoch observation values (Epoch: 2026-04-29T22:34:06.001Z)
Latitude
-0.00001°
Longitude
132.62989°
Altitude
540.513 km
Speed
7.593 km/s
True Right ascension
21h 56m 11s
True Declination
0° 00' 00"
Sunlit
Object was in daylight at epoch
Visualization orbit readout
Latitude
Unknown
Longitude
Unknown
Altitude
Unknown
Speed
Unknown
Apparent Right ascension
Unknown
Apparent Declination
Unknown
Sunlit
N/A
Visualization observer readout
Local Sidereal Time
11:14:56
Azimuth
Unknown
Elevation
Unknown
Doppler factor
Unknown
Orbital elements
Apogee altitude
540.974 km
Perigee altitude
539.005 km
Semi-major axis
6,918.127 km
Eccentricity
0.00014
Inclination
53.2183°
RAAN
329.049°
Arg. of periapsis
82.5297°
True anomaly
277.56954°
Mean anomaly
277.5857°
Eccentric anomaly
277.57762°
Mean motion
3.7719 °/min
Orbital period
95.44 mins
BSTAR
-0.000088352
Loading maneuver chart data...
Computing Atmospheric mass density...

Documentation

Showing up to 5 results
|